Location: Krakow
(50.0212°N, 19.9423°E)
Time: 00:23:58
(UTC+02:00)

NOAA 18 - Pass Details

Date: 22 August 2024
Orbit: 837 x 859 km, 98.9° (Epoch: 19 September)

Event Time Altitude Azimuth Distance (km) Brightness Sun altitude
Exits shadow 00:01:04 21° 253° (WSW) 1,827 6.9 -27.6°
Maximum altitude 00:02:07 22° 269° (W) 1,777 6.9 -27.6°
Drops below altitude 10° 00:06:24 10° 320° (NW) 2,505 8.4 -27.7°
Sets 00:09:21 0° 335° (NNW) 3,446 9.5 -27.8°
